Back to catalog

FENGYUN 1C DEB

AliveSSO
NORAD 33740·DEBRIS·🇨🇳 China

Launched May 10, 1999 from Taiyuan Satellite Launch Center

Loading…

Next Passes (next 24 hours)

TLE

FreshSource: Space-Track

Epoch: Sep 14, 2026, 06:48 UTC

1 33740U 99025DJD 26257.28372859  .00000091  00000-0  72164-4 0  9992
2 33740  98.6817 266.6843 0002539  91.3484 268.7979 14.12452350940368

Track FENGYUN 1C DEB in real time with AllMySat

Download on the App Store